Temperature
20 18 16 16 16 16 16 16 16 16 16 16 16 16 15 15 15 15 15 15 14 14 14 14 14 13 13 14 14 14 14 14 14 14 14 14 13 13 13 13 13 13 13
21 18 16 16 16 16 16 16 16 16 16 16 16 15 15 15 15 15 15 15 14 14 14 14 13 13 13 13 13 14 13 13 13 13 13 13 13 13 13 13 13 13 13
20 18 17 16 16 16 16 16 16 16 16 16 16 16 15 15 15 15 15 15 14 14 14 13 13 13 13 13 13 13 13 13 13 13 13 13 13 13 13 13 13 13 13
20 18 17 17 17 17 17 16 16 16 16 16 16 16 16 15 15 15 15 14 14 14 14 13 13 13 13 13 13 13 13 13 13 13 13 13 13 13 13 13 13 13 13
19 18 17 17 17 17 17 17 17 16 16 16 16 16 16 16 15 15 15 14 14 14 14 14 13 13 13 13 13 13 13 13 13 13 13 13 13 13 13 13 13 13 13
19 18 17 17 17 17 17 17 17 17 17 17 17 17 16 16 16 15 15 14 14 14 14 14 14 14 14 14 14 13 13 13 13 13 13 13 13 13 13 13 13 13 13
19 18 17 17 17 17 17 17 17 17 17 17 17 17 17 17 16 16 15 14 14 14 14 14 14 14 14 14 14 13 13 13 13 13 12 12 12 12 13 13 12 12 12
18 18 17 17 17 17 17 17 17 17 17 17 17 17 17 17 16 16 15 15 14 14 14 14 14 14 14 14 14 13 13 13 12 12 12 12 12 12 12 12 12 12 12
17 17 17 17 17 17 17 17 18 17 17 17 17 17 17 17 17 16 15 15 14 14 14 14 14 14 14 14 13 13 13 13 12 12 12 12 12 12 12 12 12 12 12
17 17 17 18 18 18 18 17 18 18 17 17 17 17 17 17 16 16 15 15 14 14 14 14 14 14 13 13 13 13 13 12 12 12 12 12 11 11 11 11 11 11 11
17 17 17 18 18 18 18 17 17 17 17 17 17 17 17 17 16 16 15 15 14 14 14 14 14 13 13 13 13 13 12 12 12 12 11 11 11 11 11 11 11 11 11
18 17 17 17 18 18 18 18 18 18 17 17 17 17 17 16 16 16 15 15 14 14 14 14 13 13 13 13 13 12 12 12 12 12 11 11 11 11 11 11 10 10 10
19 18 18 17 17 17 18 18 18 18 18 17 17 17 16 16 16 15 15 15 14 14 14 13 13 13 13 13 13 12 12 12 12 11 11 11 10 10 10 10 10 10 10
19 19 18 18 17 17 17 17 17 18 18 17 17 17 16 16 15 15 15 14 14 14 13 13 13 13 13 13 12 12 12 12 12 11 11 11 10 10 10 10 10 9 9
19 19 18 18 18 17 17 17 17 17 17 17 17 16 16 16 15 15 15 14 14 13 13 13 13 13 13 13 12 12 12 12 12 11 11 11 10 10 10 9 9 9 9
18 18 18 18 18 17 17 17 17 17 17 17 17 16 16 16 15 15 14 14 14 13 13 13 12 12 12 12 12 12 12 12 11 11 11 11 10 10 9 9 9 9 9
18 18 18 18 17 17 17 17 17 16 16 16 16 16 16 15 15 14 14 14 13 13 13 12 12 12 12 12 12 12 12 12 11 11 11 10 10 9 9 9 9 8 8
17 17 17 17 17 17 17 17 16 16 16 16 16 16 15 15 15 14 14 14 13 13 12 12 12 12 12 12 12 12 12 12 11 11 11 10 10 9 9 9 8 8 8
17 17 17 17 17 17 17 17 17 16 16 16 16 15 15 15 15 14 14 13 13 12 12 12 12 12 12 12 12 12 12 11 11 11 11 10 9 9 9 8 8 8 8
17 17 17 17 17 17 17 17 16 16 16 16 16 15 15 15 15 14 14 13 13 12 12 12 12 12 11 11 11 11 11 11 11 11 10 10 9 9 8 8 8 7 7
17 17 17 17 17 17 17 17 16 16 16 16 16 16 15 15 15 14 14 13 13 12 12 12 12 12 11 11 11 11 11 11 11 11 10 10 9 9 8 8 7 7 7
17 17 17 17 17 17 17 17 17 17 17 17 16 16 16 15 15 14 14 14 13 12 12 12 12 12 11 11 11 11 11 11 11 11 10 10 9 8 8 7 7 6 6
16 16 16 17 17 17 17 17 16 16 16 16 16 16 16 15 15 15 14 14 14 13 13 12 12 12 12 11 11 11 11 11 11 10 10 10 9 8 8 7 6 6 5
15 16 16 16 16 16 16 16 16 16 16 16 17 16 16 16 15 15 15 14 14 13 13 12 12 12 12 11 11 11 11 11 11 10 10 9 9 8 7 6 6 5 5
15 15 15 16 16 16 16 16 16 16 16 16 16 16 16 16 15 15 15 14 14 13 13 12 12 12 11 11 11 11 10 10 10 10 9 9 8 7 7 6 5 5 4
14 14 15 15 15 15 15 15 15 15 15 15 15 16 16 15 15 15 15 14 14 13 13 13 12 11 11 11 10 10 10 10 10 9 8 8 7 7 6 5 5 4 4
Wind_Speed
6 10 18 18 17 17 17 18 18 18 18 17 17 16 15 14 12 11 9 9 8 8 9 10 12 12 13 13 13 13 12 11 11 11 10 9 8 8 9 9 9 8 8
10 14 19 19 18 18 18 18 18 18 17 17 16 15 14 12 11 10 8 8 8 8 10 11 12 13 13 13 13 12 11 10 9 8 8 7 6 6 7 7 6 6 6
13 15 19 19 18 18 18 18 18 18 17 16 15 14 12 11 10 8 8 8 8 9 10 12 13 13 13 13 12 11 10 9 8 7 6 5 4 5 5 5 5 5 4
13 15 17 19 18 18 18 19 18 17 16 15 14 13 12 11 10 9 8 8 9 11 12 13 13 13 13 12 11 10 9 8 7 6 5 4 4 4 5 4 4 3 3
10 14 17 20 18 18 19 19 18 17 16 15 14 13 12 11 10 10 10 10 12 13 13 13 13 12 12 11 9 9 8 7 7 6 5 3 4 4 6 6 5 5 4
9 13 18 20 19 18 18 18 17 17 16 15 14 13 12 11 11 11 12 12 12 13 13 12 12 11 10 9 8 8 7 8 8 7 4 3 3 4 8 8 8 9 9
9 11 17 19 18 18 18 17 17 17 16 15 14 13 12 12 12 12 12 11 11 11 12 11 10 10 9 8 8 8 8 8 9 7 5 4 5 8 10 11 12 13 15
10 10 15 18 17 17 17 17 17 17 16 15 14 14 13 13 12 12 11 11 10 10 10 9 9 8 8 8 8 8 8 8 8 7 5 5 6 10 12 13 14 14 15
8 8 11 14 16 16 16 17 17 17 16 15 15 14 13 13 12 12 11 11 10 9 9 8 8 7 7 7 7 7 8 9 9 6 5 6 8 11 13 13 14 14 14
8 7 8 12 13 14 14 15 16 16 16 15 14 14 13 12 12 11 10 9 9 9 8 7 7 7 7 8 8 9 10 9 8 7 6 7 9 11 12 12 12 13 13
10 7 7 8 11 12 13 14 15 15 15 15 14 15 14 11 10 10 8 8 8 8 7 7 7 8 8 9 9 10 10 9 8 7 6 8 10 11 11 11 11 11 12
15 12 8 8 8 11 12 12 13 13 13 13 13 14 13 11 9 8 8 8 7 7 7 7 7 8 9 9 9 10 10 9 9 7 7 10 10 11 11 11 10 10 10
15 14 12 9 8 9 8 10 10 11 11 12 13 14 13 10 8 7 7 6 6 6 6 6 8 8 8 9 9 9 9 9 9 8 8 10 10 10 10 10 10 9 9
14 15 13 11 9 9 9 8 9 8 9 10 13 15 12 8 7 6 6 6 6 6 6 6 7 8 8 8 9 9 9 9 9 9 9 10 10 10 9 9 8 8 8
14 15 14 13 12 9 7 7 8 8 9 11 13 14 14 9 6 6 6 7 6 7 7 7 7 7 7 7 8 8 8 8 9 9 10 11 10 9 8 8 8 7 7
14 14 14 14 13 10 10 8 7 10 11 12 13 15 16 13 9 7 6 6 7 8 8 8 7 6 5 6 6 7 7 7 8 9 9 10 10 9 8 7 7 7 7
13 13 15 15 14 13 12 10 9 11 13 11 13 16 17 15 13 10 6 5 8 10 10 9 8 7 5 5 4 5 6 6 7 8 8 9 9 9 8 7 7 6 7
10 12 14 14 15 15 14 11 8 11 12 12 14 16 18 18 16 12 7 6 11 12 10 6 5 4 4 4 3 3 4 5 6 6 7 8 8 8 7 6 6 6 6
11 12 13 14 15 17 16 12 9 9 10 12 14 15 17 19 18 14 8 9 12 9 6 6 4 4 4 4 4 3 2 2 4 5 5 6 6 6 6 5 5 5 5
9 10 12 13 14 14 12 9 8 8 9 10 12 14 17 18 19 16 10 10 12 7 6 6 5 3 3 5 4 3 2 1 2 3 4 5 5 5 5 5 4 4 4
8 9 11 13 13 11 10 12 12 13 12 11 11 15 18 18 19 16 9 9 10 10 10 9 5 5 3 3 4 2 2 1 2 1 3 4 4 5 6 5 3 2 3
8 9 10 12 12 12 13 13 9 9 9 11 9 10 16 17 18 16 13 12 11 9 10 10 7 5 3 4 4 3 2 1 1 1 2 3 3 5 5 4 3 1 1
6 7 8 10 11 12 12 8 5 4 3 5 8 11 12 16 18 17 15 13 13 13 13 12 10 9 6 3 2 4 4 6 3 1 1 1 3 2 3 4 3 1 2
5 5 6 7 9 10 10 10 12 12 13 13 12 12 12 14 15 16 15 14 14 12 12 12 10 7 7 5 2 1 1 3 4 3 1 1 2 3 3 2 2 2 2
4 3 4 5 6 7 8 11 13 14 13 9 7 9 10 10 12 13 14 13 14 12 12 12 10 8 6 6 5 4 2 2 2 3 3 2 1 2 3 2 3 3 3
4 3 3 3 5 5 7 9 12 14 13 10 9 11 10 8 8 11 12 12 12 11 12 11 11 11 7 7 6 4 4 4 3 3 3 2 2 2 2 2 3 4 4
Wind_Direction
170 167 162 159 156 153 150 147 144 139 134 132 130 128 127 126 124 124 126 129 135 137 136 132 125 115 107 100 98 96 92 88 85 80 73 68 72 81 80 77 67 67 79
151 160 159 158 156 153 151 148 144 140 137 134 132 129 127 125 123 122 128 136 139 134 133 131 123 114 106 103 102 99 95 91 86 82 74 65 63 82 86 80 74 71 74
144 157 157 156 155 154 152 148 144 142 140 138 135 133 130 127 125 124 127 135 137 130 127 125 119 113 107 105 102 98 94 91 88 87 79 63 50 89 96 90 80 76 73
145 154 155 154 155 155 152 148 146 145 144 142 140 138 136 135 132 127 124 125 125 125 121 116 113 111 108 106 102 97 91 87 90 93 87 63 27 79 95 93 84 72 61
141 148 153 153 155 154 152 151 151 150 149 146 144 142 143 143 138 131 123 117 115 118 117 114 113 111 109 106 101 95 88 86 92 96 92 57 13 57 78 73 67 60 55
134 144 153 154 156 155 155 156 156 156 153 151 149 149 148 147 141 133 123 117 115 117 118 116 115 112 109 105 99 92 87 91 99 98 84 47 20 62 77 71 65 60 59
137 143 154 155 158 160 161 162 162 160 158 156 155 154 153 151 143 137 132 127 124 123 122 120 118 115 110 103 99 96 93 98 105 98 78 49 46 74 75 71 66 62 61
144 144 155 157 160 164 166 167 167 166 164 162 161 159 157 154 148 145 143 139 134 131 128 127 123 116 108 102 101 103 102 103 105 94 73 56 60 74 74 71 67 64 61
141 143 152 158 161 166 169 170 170 168 167 166 166 163 160 157 155 153 151 148 144 140 133 130 123 114 106 100 100 105 108 107 104 93 76 70 71 77 75 70 66 64 63
148 151 153 156 160 165 170 171 171 169 169 170 168 162 159 158 160 160 157 154 148 143 136 131 122 110 99 96 99 105 109 106 100 92 81 77 80 81 76 70 68 67 64
170 170 163 159 161 164 168 173 173 173 173 172 168 163 158 159 163 163 162 158 153 148 143 135 122 107 96 94 100 104 105 104 102 94 91 94 90 86 81 75 70 67 63
185 185 177 170 166 165 171 172 172 172 175 172 167 163 161 162 163 161 165 163 155 146 140 133 119 107 103 100 99 103 104 104 99 92 101 103 98 92 86 80 75 69 64
187 189 188 181 174 172 171 169 171 171 172 170 170 168 165 163 162 159 159 157 150 141 126 116 105 107 108 113 111 109 110 107 101 95 102 104 104 100 93 86 78 70 63
190 195 193 188 183 182 177 175 174 173 173 173 176 174 167 162 162 162 163 160 151 143 132 119 113 112 109 116 122 119 116 112 107 101 101 107 109 106 100 92 81 71 63
199 199 198 194 193 187 181 182 183 183 183 182 181 182 178 172 170 172 171 169 164 157 147 135 129 122 116 117 123 125 122 120 115 107 104 109 111 111 105 95 83 70 60
207 205 202 201 198 192 193 193 189 191 189 187 188 189 187 184 180 176 174 175 175 171 162 151 144 134 125 123 118 126 130 130 126 119 113 112 114 114 110 98 83 70 57
210 207 205 205 201 200 200 199 197 196 194 196 197 195 193 192 188 184 178 179 181 173 158 143 132 123 119 115 112 126 135 139 138 132 126 119 116 115 115 103 88 71 53
212 209 209 206 204 205 205 203 202 199 199 202 200 198 198 197 194 187 185 187 180 168 157 144 137 122 126 129 128 126 136 146 149 147 140 133 126 120 118 111 93 72 48
214 211 209 207 205 206 206 205 203 199 203 205 203 203 203 200 196 192 191 186 173 164 160 158 145 140 148 145 133 113 114 143 158 157 154 150 142 134 122 112 94 72 40
223 217 214 211 210 206 204 203 203 205 209 206 207 208 202 201 197 194 190 180 171 165 167 162 146 124 133 141 119 94 72 117 150 163 172 166 161 152 141 122 101 64 28
229 221 216 213 213 203 199 205 208 214 213 212 211 208 204 200 195 193 188 179 177 181 179 165 142 135 131 140 117 98 45 57 135 158 170 166 170 167 154 140 118 71 24
226 225 223 220 216 208 207 207 207 208 214 214 211 207 205 200 195 194 189 187 185 180 173 172 155 143 141 165 148 139 185 275 240 138 161 174 172 163 157 154 136 93 43
233 229 228 227 223 216 212 206 193 185 185 195 208 213 208 201 197 196 192 187 186 184 185 183 173 158 156 172 184 159 165 212 203 214 165 159 172 168 168 168 158 134 104
254 247 237 235 231 226 215 206 202 208 214 213 213 213 207 200 198 196 191 187 187 187 186 185 178 166 149 159 162 121 117 145 158 188 239 223 213 197 193 186 177 161 128
287 276 259 251 243 235 222 215 214 219 221 216 206 202 202 200 197 193 189 187 188 188 185 179 173 169 162 159 159 152 131 72 93 154 197 223 264 232 224 217 203 179 152
342 332 315 292 271 250 231 224 221 224 221 211 203 204 203 197 195 193 188 189 187 184 180 178 174 173 167 156 153 151 153 156 169 159 171 186 240 278 282 267 218 189 177
Height
1509 1511 1514 1517 1521 1523 1526 1528 1531 1532 1534 1535 1537 1538 1539 1540 1541 1541 1542 1542 1543 1543 1544 1545 1545 1546 1547 1547 1547 1547 1548 1548 1549 1549 1549 1550 1551 1551 1552 1553 1554 1554 1555
1508 1511 1514 1518 1521 1524 1526 1529 1531 1533 1534 1536 1537 1538 1539 1540 1540 1541 1541 1541 1542 1543 1544 1545 1546 1547 1548 1548 1548 1548 1549 1549 1550 1550 1551 1551 1552 1552 1553 1554 1555 1555 1555
1508 1511 1515 1518 1521 1524 1527 1529 1531 1533 1534 1536 1537 1538 1538 1539 1539 1540 1540 1541 1542 1543 1545 1546 1547 1548 1549 1549 1549 1550 1550 1551 1551 1552 1552 1553 1553 1553 1554 1555 1555 1556 1556
1509 1511 1515 1518 1521 1524 1526 1529 1531 1533 1534 1535 1536 1537 1538 1538 1539 1539 1540 1541 1543 1544 1546 1547 1548 1549 1550 1550 1551 1551 1552 1552 1553 1554 1554 1554 1554 1555 1555 1556 1556 1556 1556
1509 1512 1515 1518 1521 1524 1526 1528 1530 1532 1534 1535 1536 1537 1537 1537 1538 1539 1540 1542 1543 1545 1547 1548 1550 1550 1551 1551 1552 1553 1553 1554 1555 1555 1555 1556 1556 1556 1557 1557 1557 1557 1557
1510 1513 1516 1519 1521 1524 1526 1528 1530 1532 1533 1535 1535 1536 1537 1537 1538 1539 1541 1542 1544 1546 1548 1549 1551 1551 1552 1552 1553 1554 1555 1555 1556 1556 1557 1557 1557 1557 1557 1558 1558 1557 1557
1510 1513 1516 1519 1522 1524 1526 1528 1530 1532 1533 1534 1535 1536 1537 1538 1539 1540 1541 1543 1545 1547 1549 1550 1551 1552 1553 1553 1554 1555 1556 1557 1557 1557 1558 1558 1558 1558 1558 1558 1558 1558 1557
1511 1514 1516 1519 1522 1524 1526 1528 1530 1531 1533 1534 1536 1537 1538 1539 1540 1541 1542 1544 1546 1548 1549 1551 1552 1553 1553 1554 1555 1555 1556 1557 1558 1558 1558 1558 1558 1558 1558 1558 1558 1557 1557
1512 1514 1517 1519 1522 1524 1526 1528 1529 1531 1533 1534 1536 1537 1538 1539 1541 1542 1543 1545 1547 1549 1550 1551 1552 1553 1554 1554 1555 1556 1557 1558 1558 1558 1559 1559 1559 1558 1558 1557 1557 1557 1556
1512 1514 1516 1519 1521 1523 1525 1527 1529 1531 1532 1534 1536 1537 1538 1540 1541 1542 1544 1545 1547 1549 1550 1551 1552 1553 1554 1555 1556 1556 1557 1558 1558 1558 1558 1558 1558 1558 1557 1556 1556 1556 1555
1511 1513 1516 1518 1521 1523 1525 1527 1528 1530 1532 1533 1535 1537 1538 1540 1541 1543 1544 1546 1547 1549 1550 1551 1552 1553 1554 1555 1556 1556 1557 1557 1558 1558 1558 1558 1557 1556 1556 1555 1555 1554 1554
1508 1511 1514 1517 1519 1521 1523 1525 1527 1529 1531 1533 1534 1536 1538 1540 1541 1542 1544 1545 1547 1548 1550 1551 1552 1553 1554 1555 1555 1556 1557 1557 1557 1557 1557 1556 1556 1555 1554 1554 1553 1553 1552
1507 1510 1512 1515 1518 1520 1522 1524 1526 1528 1530 1531 1533 1535 1537 1539 1540 1542 1543 1545 1546 1548 1549 1550 1551 1553 1554 1555 1555 1555 1556 1556 1556 1556 1556 1555 1554 1554 1553 1552 1552 1551 1551
1505 1508 1511 1514 1516 1518 1520 1522 1524 1526 1528 1530 1532 1534 1536 1537 1539 1541 1543 1544 1546 1547 1549 1550 1551 1552 1553 1554 1554 1555 1555 1555 1555 1555 1554 1554 1553 1552 1551 1551 1550 1550 1549
1504 1506 1509 1511 1513 1516 1518 1520 1522 1524 1526 1528 1530 1532 1534 1536 1538 1540 1541 1543 1545 1546 1548 1549 1550 1551 1552 1553 1553 1554 1554 1554 1553 1553 1553 1552 1552 1551 1550 1550 1549 1549 1548
1502 1505 1507 1509 1511 1513 1515 1517 1519 1522 1524 1526 1527 1529 1532 1534 1536 1538 1540 1541 1543 1545 1546 1548 1549 1550 1551 1551 1552 1552 1552 1552 1552 1552 1551 1551 1550 1550 1549 1548 1548 1547 1547
1501 1503 1505 1506 1509 1510 1512 1515 1517 1519 1521 1523 1525 1527 1529 1531 1533 1535 1537 1539 1541 1542 1544 1545 1547 1548 1549 1549 1550 1550 1550 1550 1550 1550 1549 1549 1548 1548 1547 1547 1546 1546 1545
1497 1499 1501 1503 1505 1507 1509 1511 1513 1515 1517 1519 1521 1523 1525 1527 1530 1532 1534 1536 1538 1540 1541 1543 1544 1545 1546 1547 1548 1548 1548 1548 1548 1548 1547 1547 1546 1546 1545 1545 1544 1543 1543
1493 1495 1497 1499 1501 1503 1505 1507 1509 1511 1513 1515 1517 1519 1521 1523 1526 1528 1530 1533 1535 1536 1538 1540 1541 1543 1544 1545 1545 1546 1546 1546 1545 1545 1545 1545 1544 1544 1543 1542 1542 1541 1540
1488 1490 1492 1494 1496 1498 1501 1503 1504 1506 1508 1510 1512 1514 1517 1519 1521 1524 1526 1529 1531 1532 1534 1536 1538 1539 1541 1542 1542 1543 1543 1543 1542 1542 1542 1542 1541 1541 1540 1540 1539 1538 1538
1482 1484 1486 1488 1490 1492 1494 1496 1497 1499 1502 1504 1507 1509 1511 1514 1516 1519 1521 1524 1526 1528 1530 1532 1534 1535 1536 1538 1539 1539 1539 1539 1539 1539 1539 1538 1538 1538 1537 1536 1536 1535 1534
1475 1477 1479 1481 1484 1485 1487 1489 1491 1494 1496 1498 1501 1503 1506 1508 1510 1513 1515 1517 1520 1522 1525 1527 1528 1530 1532 1533 1535 1535 1536 1536 1534 1535 1534 1534 1534 1534 1533 1532 1532 1531 1530
1469 1471 1473 1475 1477 1479 1481 1484 1485 1487 1488 1491 1493 1496 1498 1501 1504 1506 1509 1511 1514 1516 1518 1520 1523 1525 1526 1528 1530 1531 1531 1530 1530 1530 1530 1530 1530 1530 1529 1529 1528 1527 1526
1463 1465 1467 1469 1471 1473 1475 1476 1477 1478 1479 1482 1485 1488 1491 1494 1497 1499 1502 1504 1507 1509 1511 1514 1516 1518 1521 1522 1524 1525 1526 1526 1527 1526 1526 1526 1526 1525 1525 1524 1523 1522 1521
1459 1460 1462 1463 1465 1466 1468 1469 1470 1471 1473 1475 1478 1480 1483 1486 1489 1491 1494 1497 1499 1502 1504 1507 1509 1512 1514 1516 1518 1519 1520 1521 1521 1521 1521 1521 1521 1521 1521 1520 1519 1518 1516
1455 1456 1457 1458 1459 1460 1461 1462 1462 1463 1465 1467 1469 1472 1474 1477 1480 1483 1486 1489 1492 1494 1497 1500 1503 1505 1508 1510 1512 1513 1514 1515 1515 1516 1516 1516 1516 1517 1516 1516 1514 1513 1511